Waarnemingen

Advertentie
Mijn weer
Vilhelmina, Zweden (2245): temperatuur & dauwpunt: 29.07.2020 21:00:00 - 04.08.2020 21:00:00 (CEST)Vilhelmina, Zweden (2245): windsnelheid & windstoten: 29.07.2020 21:00:00 - 04.08.2020 21:00:00 (CEST)Vilhelmina, Zweden (2245): windrichting: 29.07.2020 21:00:00 - 04.08.2020 21:00:00 (CEST)Vilhelmina, Zweden (2245): luchtdruk: 29.07.2020 21:00:00 - 04.08.2020 21:00:00 (CEST)Vilhelmina, Zweden (2245): zicht: 29.07.2020 21:00:00 - 04.08.2020 21:00:00 (CEST)Vilhelmina, Zweden (2245): neerslag: 29.07.2020 21:00:00 - 04.08.2020 21:00:00 (CEST)
Datum & Tijd tt [°C] td [°C] ff [km/u] ff [kn] fx [km/u] fx [kn] dd ppp [hPa] vv [km] rr [mm]
04.08.2020 21:00:00 11,2 7,0 8 4 22 12 WZW 1007,7 10 0,0
04.08.2020 20:00:00 14,4 6,7 9 5 21 12 W 1006,9 10 0,0
04.08.2020 19:00:00 14,2 7,3 16 9 24 13 W 1006,7 10 0,0
04.08.2020 18:00:00 14,9 7,9 15 8 31 17 W 1006,2 10 0,0
04.08.2020 17:00:00 15,7 7,5 21 11 27 14 W 1005,6 10 0,0
04.08.2020 16:00:00 16,4 7,1 18 10 31 17 W 1005,3 10 0,0
04.08.2020 15:00:00 15,2 6,0 15 8 26 14 W 1005,2 10 0,0
04.08.2020 14:00:00 15,4 6,4 15 8 22 12 W 1004,9 10 0,0
04.08.2020 13:00:00 14,6 7,6 15 8 29 15 W 1005,1 10 0,0
04.08.2020 12:00:00 14,2 7,5 16 9 29 15 W 1005,0 10 0,0
04.08.2020 11:00:00 14,2 8,9 18 10 23 13 W 1004,7 10 0,0
04.08.2020 10:00:00 13,0 8,5 15 8 23 13 WNW 1004,5 10 0,0
04.08.2020 09:00:00 12,1 9,1 9 5 23 12 WNW 1004,2 10 0,0
04.08.2020 08:00:00 11,0 9,6 8 4 12 7 W 1004,3 10 0,0
04.08.2020 07:00:00 10,3 9,4 9 5 13 7 W 1004,2 10 0,1
04.08.2020 06:00:00 10,2 9,7 11 6 19 10 W 1004,1 5 0,1
04.08.2020 05:00:00 10,5 9,9 13 7 21 11 WNW 1003,9 10 0,1
04.08.2020 04:00:00 10,9 10,3 11 6 19 10 WNW 1003,6 6 0,0
04.08.2020 03:00:00 11,2 10,4 9 5 14 8 WNW 1003,3 10 0,0
04.08.2020 02:00:00 11,2 10,7 5 3 8 4 W 1003,2 10 0,0
04.08.2020 01:00:00 11,3 11,0 4 2 7 4 - 1003,1 10 0,0
04.08.2020 00:00:00 11,7 11,4 0 0 4 2 N 1002,7 10 0,0
03.08.2020 23:00:00 11,6 11,3 0 0 4 2 N 1002,6 10 0,0
03.08.2020 22:00:00 11,6 11,1 5 3 9 5 Z 1002,3 10 0,0
03.08.2020 21:00:00 11,8 11,2 4 2 9 5 - 1002,2 10 0,4
03.08.2020 20:00:00 12,4 11,5 5 3 13 7 O 1002,3 10 0,0
03.08.2020 19:00:00 12,6 11,7 8 4 15 8 OZO 1001,8 10 0,1
03.08.2020 18:00:00 13,6 12,0 13 7 19 10 ZO 1001,8 10 0,0
03.08.2020 17:00:00 13,5 11,9 9 5 14 8 ZO 1001,9 10 0,4
03.08.2020 16:00:00 13,0 12,2 11 6 14 8 OZO 1002,3 10 0,5
03.08.2020 15:00:00 12,7 11,9 8 4 11 6 OZO 1002,5 10 0,9
03.08.2020 14:00:00 12,9 12,0 5 3 15 8 ZO 1002,4 10 1,5
03.08.2020 13:00:00 12,6 11,5 8 4 16 8 ZO 1002,4 6 1,8
03.08.2020 12:00:00 13,2 11,6 11 6 22 12 ZO 1002,3 10 0,1
03.08.2020 11:00:00 14,5 10,4 21 11 25 13 OZO 1002,0 10 0,0
03.08.2020 10:00:00 14,1 10,7 16 9 26 14 O 1002,3 10 0,0
03.08.2020 09:00:00 14,1 11,1 15 8 25 13 O 1002,6 10 0,0
03.08.2020 08:00:00 13,6 10,8 18 10 31 17 OZO 1002,9 10 0,0
03.08.2020 07:00:00 13,2 11,1 13 7 18 10 OZO 1003,3 10 0,0
03.08.2020 06:00:00 12,5 10,7 8 4 16 9 O 1003,7 10 0,0
03.08.2020 05:00:00 12,4 10,6 11 6 19 11 OZO 1004,2 10 0,0
03.08.2020 04:00:00 12,6 10,8 8 4 19 10 O 1004,4 10 0,0
03.08.2020 03:00:00 13,3 11,2 13 7 20 11 O 1004,4 10 0,0
03.08.2020 02:00:00 13,7 11,9 9 5 15 8 O 1004,7 10 0,0
03.08.2020 01:00:00 13,9 12,1 4 2 10 5 - 1005,1 10 0,0
03.08.2020 00:00:00 14,6 12,5 8 4 13 7 ZO 1005,1 10 0,0
02.08.2020 23:00:00 14,5 12,9 5 3 10 5 ZO 1005,1 10 0,0
02.08.2020 22:00:00 14,4 12,9 0 0 3 1 N 1005,4 10 0,0
02.08.2020 21:00:00 15,5 13,2 0 0 4 2 N 1005,4 10 0,0
02.08.2020 20:00:00 16,2 12,4 8 4 13 7 OZO 1005,4 10 0,0
02.08.2020 19:00:00 16,5 12,1 11 6 24 13 OZO 1005,8 10 0,0
02.08.2020 18:00:00 16,9 12,2 15 8 24 13 ZO 1006,0 10 0,0
02.08.2020 17:00:00 17,1 12,1 15 8 24 13 ZZO 1006,2 10 0,0
02.08.2020 16:00:00 17,1 12,2 16 9 24 13 ZO 1006,6 10 0,0
02.08.2020 15:00:00 17,5 12,6 21 11 26 14 O 1006,7 10 0,0
02.08.2020 14:00:00 18,0 12,2 16 9 29 16 O 1006,7 10 0,0
02.08.2020 13:00:00 18,8 13,0 15 8 27 15 O 1006,5 10 0,0
02.08.2020 12:00:00 18,9 13,1 18 10 27 15 O 1006,5 10 0,0
02.08.2020 11:00:00 19,4 13,0 15 8 23 13 O 1006,6 10 0,0
02.08.2020 10:00:00 19,6 13,3 18 10 28 15 OZO 1006,8 10 0,0
02.08.2020 09:00:00 18,7 13,8 15 8 24 13 ONO 1006,9 10 0,0
02.08.2020 08:00:00 17,8 13,9 11 6 14 7 O 1007,4 10 0,0
02.08.2020 07:00:00 16,2 13,3 0 0 6 4 N 1008,1 10 0,0
02.08.2020 06:00:00 14,6 13,1 0 0 5 3 N 1008,3 10 0,0
02.08.2020 05:00:00 13,5 12,9 0 0 6 4 N 1008,9 10 0,0
02.08.2020 04:00:00 12,2 11,7 0 0 4 2 N 1009,4 4,4 0,0
02.08.2020 03:00:00 12,6 12,1 0 0 3 1 N 1009,4 10 0,0
02.08.2020 02:00:00 13,0 12,4 0 0 3 2 N 1009,8 10 0,0
02.08.2020 01:00:00 13,8 13,0 0 0 5 3 N 1010,3 10 0,0
02.08.2020 00:00:00 13,9 13,1 0 0 3 1 N 1010,3 10 0,0
01.08.2020 23:00:00 14,9 13,9 0 0 4 2 N 1010,4 10 0,0
01.08.2020 22:00:00 16,1 14,5 0 0 3 1 N 1010,6 10 0,0
01.08.2020 21:00:00 17,2 14,7 0 0 2 1 N 1010,8 10 0,0
01.08.2020 20:00:00 19,1 14,1 4 2 11 6 ZZW 1010,9 10 0,0
01.08.2020 19:00:00 21,3 12,2 2 1 5 3 - 1010,9 10 0,0
01.08.2020 18:00:00 22,0 10,2 9 5 19 11 W 1011,2 10 0,0
01.08.2020 17:00:00 22,8 11,9 15 8 23 13 W 1011,7 10 0,0
01.08.2020 16:00:00 22,3 12,0 11 6 28 15 ZW 1012,3 10 0,0
01.08.2020 15:00:00 22,3 11,7 13 7 25 13 ZW 1012,8 10 0,0
01.08.2020 14:00:00 22,2 11,3 13 7 22 12 ZZW 1013,4 10 0,0
01.08.2020 13:00:00 21,5 11,2 15 8 22 12 ZW 1013,9 10 0,0
01.08.2020 12:00:00 21,3 11,3 9 5 15 8 Z 1014,4 10 0,0
01.08.2020 11:00:00 20,8 13,7 8 4 14 8 ZZW 1014,8 10 0,0
01.08.2020 10:00:00 19,5 13,2 9 5 14 7 Z 1015,3 10 0,0
01.08.2020 09:00:00 17,4 12,9 0 0 4 2 N 1016,0 10 0,0
01.08.2020 08:00:00 13,7 13,4 0 0 3 1 N 1017,1 10 0,0
01.08.2020 07:00:00 10,4 10,2 0 0 3 2 N 1017,8 0,1 0,0
01.08.2020 06:00:00 8,7 8,6 0 0 3 2 N 1018,5 0,4 0,0
01.08.2020 05:00:00 8,3 8,2 4 2 4 2 - 1018,7 0,1 0,0
01.08.2020 04:00:00 8,1 7,9 0 0 3 2 N 1018,9 - 0,0
01.08.2020 03:00:00 7,7 7,5 0 0 2 1 N 1019,1 0,1 0,0
01.08.2020 02:00:00 7,8 7,5 0 0 3 1 N 1019,1 0,3 0,0
01.08.2020 01:00:00 8,9 8,4 0 0 2 1 N 1018,9 2,1 0,0
01.08.2020 00:00:00 9,9 9,4 0 0 3 2 N 1018,4 0,4 0,0
31.07.2020 23:00:00 11,8 11,1 0 0 1 1 N 1017,9 10 0,0
31.07.2020 22:00:00 13,9 12,9 0 0 3 2 N 1017,5 10 0,0
31.07.2020 21:00:00 15,8 14,0 0 0 5 3 N 1017,0 10 0,0
31.07.2020 20:00:00 18,1 12,8 4 2 6 4 WNW 1016,4 10 0,0
31.07.2020 19:00:00 18,1 12,8 0 0 17 9 N 1016,6 10 0,1
31.07.2020 18:00:00 17,3 10,7 15 8 32 17 N 1016,9 10 0,0
31.07.2020 17:00:00 21,1 11,1 13 7 19 11 W 1015,7 10 0,0
31.07.2020 16:00:00 20,1 12,6 5 3 16 9 - 1016,2 10 0,0
31.07.2020 15:00:00 19,0 12,0 11 6 27 15 N 1016,2 10 0,1
31.07.2020 14:00:00 21,2 10,1 16 9 23 12 W 1015,2 10 0,0
31.07.2020 13:00:00 20,7 11,3 11 6 22 12 W 1015,3 10 0,0
31.07.2020 12:00:00 19,6 11,4 11 6 19 11 W 1015,7 10 0,0
31.07.2020 11:00:00 19,5 12,4 11 6 19 10 W 1015,5 10 0,0
31.07.2020 10:00:00 18,6 12,4 13 7 17 9 NW 1015,3 10 0,0
31.07.2020 09:00:00 17,4 12,3 9 5 12 7 W 1015,4 10 0,0
31.07.2020 08:00:00 15,3 12,1 9 5 10 5 W 1015,7 10 0,0
31.07.2020 07:00:00 13,7 11,7 4 2 6 3 - 1015,9 10 0,0
31.07.2020 06:00:00 10,5 10,0 5 3 9 5 WNW 1015,9 10 0,0
31.07.2020 05:00:00 10,7 10,4 5 3 8 5 W 1015,3 10 0,0
31.07.2020 04:00:00 12,1 11,2 4 2 16 9 - 1014,5 10 0,0
31.07.2020 03:00:00 12,9 11,6 8 4 16 9 NNO 1013,6 10 0,0
31.07.2020 02:00:00 13,6 12,2 9 5 20 11 N 1012,9 10 0,0
31.07.2020 01:00:00 13,6 12,3 5 3 14 7 N 1012,3 10 0,0
31.07.2020 00:00:00 13,5 12,4 8 4 11 6 N 1011,5 10 0,0
30.07.2020 23:00:00 13,6 12,7 5 3 11 6 N 1010,8 10 0,0
30.07.2020 22:00:00 13,9 12,6 8 4 21 11 N 1010,1 10 0,0
30.07.2020 21:00:00 14,5 12,5 9 5 19 11 NNO 1009,2 10 0,0
30.07.2020 20:00:00 14,7 12,7 5 3 19 11 N 1008,3 10 0,0
30.07.2020 19:00:00 14,7 13,1 9 5 18 10 NNO 1007,6 10 0,0
30.07.2020 18:00:00 14,9 13,1 11 6 23 12 NNO 1006,7 10 0,0
30.07.2020 17:00:00 14,6 13,8 11 6 23 12 NO 1006,1 5 0,7
30.07.2020 16:00:00 15,1 13,6 9 5 40 22 NNO 1005,3 10 0,6
30.07.2020 15:00:00 18,1 11,4 15 8 38 20 N 1003,5 10 0,0
30.07.2020 14:00:00 17,9 11,0 13 7 32 17 NNO 1003,2 10 0,0
30.07.2020 13:00:00 17,4 10,5 13 7 35 19 N 1002,9 10 0,1
30.07.2020 12:00:00 19,2 11,2 16 9 39 21 N 1001,8 10 0,0
30.07.2020 11:00:00 17,1 11,2 16 9 34 18 N 1002,3 10 0,0
30.07.2020 10:00:00 15,4 12,3 15 8 27 15 N 1002,4 10 0,0
30.07.2020 09:00:00 14,8 12,7 16 9 31 17 N 1002,2 10 0,0
30.07.2020 08:00:00 14,3 13,2 9 5 19 11 N 1002,1 10 0,0
30.07.2020 07:00:00 13,8 13,0 8 4 14 8 N 1002,0 10 0,0
30.07.2020 06:00:00 13,5 12,9 8 4 16 9 N 1002,0 10 0,9
30.07.2020 05:00:00 13,4 12,9 9 5 18 10 NNW 1001,9 8 2,9
30.07.2020 04:00:00 13,2 12,6 8 4 13 7 NNW 1002,1 10 0,7
30.07.2020 03:00:00 13,0 12,2 5 3 16 8 N 1002,3 10 0,1
30.07.2020 02:00:00 13,1 12,5 5 3 16 8 N 1002,4 10 0,0
30.07.2020 01:00:00 13,1 12,5 5 3 9 5 - 1002,5 10 0,0
30.07.2020 00:00:00 12,4 11,9 0 0 4 2 N 1002,5 10 0,0
29.07.2020 23:00:00 13,2 12,4 2 1 8 5 - 1002,5 10 0,0
29.07.2020 22:00:00 13,9 12,9 8 4 10 5 ONO 1002,3 10 0,0
29.07.2020 21:00:00 14,3 13,3 5 3 13 7 ONO 1002,1 10 0,2

tt = temperatuur
td = dauwpunt
ff = windsnelheid
fx = windstoten
dd = windrichting
ppp = luchtdruk
vv = zicht
rr = neerslag

Weerstations in de omgeving